Regional Weather Roundup
Issued by NWS Green Bay, WI

Home | Current Version | Previous Version | Text Only | Print | Product List | Glossary On
Versions: 1 2 3 4 5 6 7 8 9 10 11 12 13 14 15 16 17 18 19 20 21 22 23 24 25 26 27 28 29 30 31 32 33 34 35 36 37 38 39 40 41 42 43 44 45 46 47 48 49 50
000
ASUS43 KGRB 150811
RWRGRB

NORTH-CENTRAL AND NORTHEAST WISCONSIN REGIONAL WEATHER ROUNDUP
NATIONAL WEATHER SERVICE GREEN BAY WI
200 AM CST FRI DEC 15 2017

WIZ005-009-010>012-018-019-150900-
NORTH CENTRAL WISCONSIN

CITY           SKY/WX    TMP DP  RH WIND       PRES   REMARKS
IRONWOOD       LGT SNOW  14  11  87 W16       29.81S FOG     WCI  -2
MANITOWISH WTR LGT SNOW  12  10  92 W6        29.78S WCI   3
ARBOR VITAE    LGT SNOW  17  14  88 W3        29.77F
EAGLE RIVER    LGT SNOW  14  10  82 W9        29.75F WCI   2
LAND O LAKES   LGT SNOW  15  11  86 W5        29.76F WCI   7
RHINELANDER    LGT SNOW  15  12  88 W10       29.78S FOG     WCI   2
PHILLIPS       LGT SNOW  14  13  93 W3        29.80F
ANTIGO         LGT SNOW  16  13  88 W8        29.79F WCI   5
TOMAHAWK       LGT SNOW  15  12  88 W3        29.80F
MERRILL        LGT SNOW  17  13  86 W8        29.82F WCI   6
$$

WIZ013-073-150900-
NORTHEAST WISCONSIN

CITY           SKY/WX    TMP DP  RH WIND       PRES   REMARKS
IRON MOUNTAIN  LGT SNOW  17  12  80 W3        29.76F
MARINETTE      LGT SNOW  20  18  92 W6        29.84F FOG
OCONTO         CLOUDY    20  16  84 SW6       29.84F
$$

WIZ017-030-035>037-045-150900-
CENTRAL WISCONSIN

CITY           SKY/WX    TMP DP  RH WIND       PRES   REMARKS
MEDFORD        LGT SNOW  16  13  88 W5        29.81S WCI   9
WAUSAU         LGT SNOW  17  13  84 W7        29.82S FOG     WCI   8
MOSINEE        FLURRIES  18  14  86 W9        29.84F WCI   6
MARSHFIELD     LGT SNOW  18  14  84 W8        29.83F FOG     WCI   8
WISC RAPIDS    CLOUDY    20  11  68 W7        29.88F
STEVENS POINT  FLURRIES  17  12  78 W9        29.86S WCI   6
WAUPACA        FLURRIES  23  17  77 W10       29.88S
SHAWANO        LGT SNOW  22  18  86 W3        29.84F
CLINTONVILLE   CLOUDY    21  14  73 W8        29.85F
WAUTOMA        FLURRIES  21  16  81 W12       29.89F WCI   9
$$

WIZ038-039-048-051-150900-
FOX VALLEY

CITY           SKY/WX    TMP DP  RH WIND       PRES   REMARKS
NWS GREEN BAY  CLOUDY    21  16  81 SW7       29.86F
APPLETON       CLOUDY    21  14  73 W12       29.84F WCI   9
OSHKOSH        LGT SNOW  22  17  81 W5        29.87F
FOND DU LAC    FLURRIES  23  15  71 W7        29.87F
$$

WIZ022-050-052-150900-
EAST CENTRAL WISCONSIN

CITY           SKY/WX    TMP DP  RH WIND       PRES   REMARKS
EPHRAIM        LGT SNOW  21  17  84 W6G18     29.81F
WASHINGTON ISL LGT SNOW  22  18  85 W12G17    29.81F
STURGEON BAY   LGT SNOW  21  18  88 W10       29.84F FOG     WCI  10
MANITOWOC      FLURRIES  21  15  78 SW8       29.87F
SHEBOYGAN      CLOUDY    20  15  81 SW8       29.87F
$$

LMZ563-521-522-541>543-150900-
LAKESHORE

STATION/POSITION TIME  TEMP    WIND        PRES    VSBY  WAVE
                       AIR SEA DIR/SP/G                  HT/PER
                 (UTC) (F)     (DEG/KT/KT) (MB)    (MI)  (FT/S)
SHEBOYGAN LKSHOR 0800   22     220/ 10/ 11 1012.7F
KEWAUNEE LKSHORE 0742   20     220/  6/  9 1010.5F
NORTHPORT PIER   0740   22     260/  4/ 10 1010.2F
MENOMINEE LKSHOR 0742   20     210/  9/ 11 1010.3F
$$




USA.gov is the U.S. government's official web portal to all federal, state and local government web resources and services.